Regional Weather Roundup
Issued by NWS

Home | Current Version | Previous Version | Text Only | Print | Product List | Glossary On
Versions: 1 2 3 4 5 6 7 8 9 10 11 12 13 14 15 16 17 18 19 20 21 22 23 24 25 26 27
000
ASUS45 KSLC 270810
RWRUT

UTAH REGIONAL WEATHER ROUNDUP
NATIONAL WEATHER SERVICE SALT LAKE CITY UT
200 AM MDT SAT AUG 27 2016

UTZ001>011-023>025-270900-

NORTHERN UTAH

CITY           SKY/WX    TMP DP  RH WIND       PRES   REMARKS
BRIGHAM CITY     N/A     59  32  36 CALM      30.05R
HILL AFB       PTCLDY    62  28  27 E13       30.06S
LOGAN          CLEAR     51  39  63 CALM      30.05R
OGDEN          CLEAR     62  29  28 S9        30.04R
PROVO AIRPORT  MOCLDY    63  39  42 CALM      30.08R
SALT LAKE CITY PTCLDY    66  33  29 SE3       30.03S
VERNAL         CLOUDY    52  48  86 CALM      30.16S
WENDOVER       CLEAR     70  30  23 CALM      30.03S
HEBER CITY     MOCLDY    52  32  46 CALM      30.13S
WEST JORDAN    PTCLDY    65  44  45 S13       30.06S

$$

UTZ012>022-026-027-270900-

SOUTHERN/CENTRAL UTAH

CITY           SKY/WX    TMP DP  RH WIND       PRES   REMARKS
BLANDING       CLOUDY    57  49  74 NW6       30.25F
BRYCE CANYON   CLOUDY    46  43  89 CALM      30.30F
CEDAR CITY     LGT RAIN  58  46  64 CALM      30.20R
MILFORD        CLOUDY    63  45  51 SW22      30.13R
MOAB/CYNLANDS  MOCLDY    64  42  44 CALM      30.09S
PRICE          MOCLDY    53  43  68 N9        30.16F
ST GEORGE      CLOUDY    68  57  68 CALM      30.09R THUNDER

$$

REGIONAL REPORTS     COLORADO/ARIZONA

CITY           SKY/WX    TMP DP  RH WIND       PRES   REMARKS
CRAIG, CO      CLOUDY    53  43  68 E6        30.20F
GRAND JUNCTION PTCLDY    59  46  62 E7        30.15F
RIFLE          CLOUDY    53  51  93 E3        30.23F
MONTROSE       PTCLDY    55  45  68 S9        30.23S
CORTEZ         CLEAR     59  49  69 SE7       30.21S
PAGE, AZ       CLOUDY    64  52  64 NW6       30.14F
GRAND CANYON   MOCLDY    53  48  83 NE5       30.24F
KINGMAN          N/A    N/A N/A N/A MISG      30.03S
FLAGSTAFF      MOCLDY    50  49  96 CALM      30.26F

$$

REGIONAL REPORTS    NEVADA/IDAHO/WYOMING

CITY           SKY/WX    TMP DP  RH WIND       PRES   REMARKS
LAS VEGAS, NV  CLOUDY    78  51  38 SW12      29.90S
ELY            CLEAR     57  34  41 S8        30.17R
ELKO           CLEAR     55  23  28 NE6       30.07R
POCATELLO, ID  CLEAR     57  30  35 CALM      30.01S
BURLEY         CLEAR     55  36  48 SW13      29.98S
EVANSTON, WY   CLOUDY    52  20  28 S7        30.20S
ROCK SPRINGS   CLOUDY    54  35  48 SW8       30.17R

$$




USA.gov is the U.S. government's official web portal to all federal, state and local government web resources and services.